Weather History for Kenai, AK

Change the Weather History Date:

Saturday, March 10, 2012

  Actual Average Record
Temperature  
Mean Temperature 12 °F -  
Max Temperature 19 °F 32 °F 49 °F (1984)
Min Temperature -2 °F 14 °F -28 °F (1972)
Degree Days  
Heating Degree Days 52    
Moisture  
Dew Point 4 °F    
Average Humidity 71    
Maximum Humidity 92    
Minimum Humidity 52    
Precipitation  
Precipitation 0.00 in - - ()
Sea Level Pressure  
Sea Level Pressure 29.37 in    
Wind  
Wind Speed 5 mph (NNW)    
Max Wind Speed 9 mph    
Max Gust Speed -    
Visibility 10 miles    
Events Snow    
Averages and records for this station are not official NWS values.
T = Trace of Precipitation, MM = Missing Value Source: NWS Daily Summary

Daily Weather History Graph

Daily Weather History Graph

Search for Another Location

Airport:

Trip Planner

Search our weather history database for the weather conditions in past years. The results will help you decide how hot, cold, wet, or windy it might be!

Date:

Astronomy

Mar. 10, 2012 Rise Set
Actual Time 7:34 AM AKST 6:56 PM AKST
Civil Twilight 6:52 AM AKST 7:38 PM AKST
Nautical Twilight 6:03 AM AKST 8:28 PM AKST
Astronomical Twilight 5:11 AM AKST 9:20 PM AKST
Moon 11:37 PM AKST (3/10) 7:35 AM AKST (3/10)
Length of Visible Light 12h 45m
Length of Day
11h 21m
Waning Gibbous, 91% of the Moon is Illuminated
Mar 10
Waning Gibbous
Mar 14
Last Quarter
Mar 22
New
Mar 30
First Quarter
Apr 6
Full

Hourly Weather History & Observations

Time (AKST) Temp. Windchill Dew Point Humidity Pressure Visibility Wind Dir Wind Speed Gust Speed Precip Events Conditions
12:53 AM 12.0 °F 1.5 °F 5.0 °F 73% 29.41 in 10.0 mi NNW 6.9 mph - N/A   Overcast
1:53 AM 12.0 °F 1.5 °F 5.0 °F 73% 29.41 in 10.0 mi North 6.9 mph - N/A   Overcast
3:53 AM 8.1 °F -3.2 °F 1.9 °F 76% 29.40 in 10.0 mi NW 6.9 mph - N/A   Overcast
4:53 AM 9.0 °F - 5.0 °F 84% 29.39 in 10.0 mi Calm Calm - N/A   Overcast
5:53 AM 8.1 °F - 5.0 °F 87% 29.39 in 5.0 mi Calm Calm - 0.00 in Snow Light Snow
6:53 AM 8.1 °F 1.4 °F 5.0 °F 87% 29.39 in 10.0 mi ENE 3.5 mph - 0.00 in   Overcast
7:53 AM 9.0 °F - 6.1 °F 88% 29.39 in 3.0 mi Calm Calm - 0.00 in Snow Light Snow
8:53 AM 8.1 °F - 3.9 °F 83% 29.39 in 10.0 mi Calm Calm - 0.00 in   Overcast
9:53 AM 10.9 °F - 9.0 °F 92% 29.40 in 10.0 mi Calm Calm - N/A   Overcast
10:53 AM 15.1 °F - 3.0 °F 59% 29.40 in 10.0 mi Calm Calm - N/A   Scattered Clouds
11:53 AM 16.0 °F 4.4 °F 3.0 °F 57% 29.39 in 10.0 mi North 9.2 mph - N/A   Partly Cloudy
12:53 PM 17.1 °F 5.8 °F 3.9 °F 56% 29.38 in 10.0 mi NNW 9.2 mph - N/A   Clear
1:53 PM 18.0 °F 6.9 °F 6.1 °F 60% 29.36 in 10.0 mi North 9.2 mph - N/A   Clear
2:53 PM 19.0 °F 8.2 °F 3.9 °F 52% 29.35 in 10.0 mi North 9.2 mph - N/A   Clear
3:53 PM 19.9 °F 12.1 °F 6.1 °F 55% 29.35 in 10.0 mi WNW 5.8 mph - N/A   Clear
4:53 PM 19.0 °F 9.0 °F 6.1 °F 57% 29.34 in 10.0 mi WNW 8.1 mph - N/A   Clear
5:53 PM 18.0 °F 9.8 °F 7.0 °F 62% 29.33 in 10.0 mi WNW 5.8 mph - N/A   Clear
6:53 PM 15.1 °F - 6.1 °F 68% 29.33 in 10.0 mi Calm Calm - N/A   Clear
7:53 PM 9.0 °F 0.6 °F 3.9 °F 80% 29.33 in 10.0 mi WNW 4.6 mph - N/A   Clear
8:53 PM 10.0 °F -1.9 °F 1.0 °F 67% 29.33 in 10.0 mi NW 8.1 mph - N/A   Clear
9:53 PM 8.1 °F -0.5 °F -0.0 °F 70% 29.32 in 10.0 mi NW 4.6 mph - N/A   Clear
10:53 PM 6.1 °F -0.9 °F -2.0 °F 69% 29.33 in 10.0 mi NNW 3.5 mph - N/A   Clear
11:53 PM -2.0 °F - -5.1 °F 87% 29.33 in 10.0 mi Calm Calm - N/A   Clear